Location: LDNL
(36.4545°S, 141.6685°E)
Time: 19:19:00
(UTC+10:00)

A-11 Canister half - Pass Details

Date: 03 February 2022
Orbit: 1527 x 1682 km, 47.3° (Epoch: 20 May)

Event Time Altitude Azimuth Distance (km) Brightness Sun altitude
Rises 22:49:26 0° 292° (WNW) 4,925 12.0 -22.5°
Reaches altitude 10° 22:52:38 10° 289° (WNW) 3,946 11.4 -23.0°
Maximum altitude 23:02:47 68° 207° (SSW) 1,794 9.4 -24.4°
Drops below altitude 10° 23:12:52 10° 124° (ESE) 3,920 11.0 -25.8°
Sets 23:16:03 0° 120° (ESE) 4,891 11.5 -26.2°
